{"data":{"norad_id":46562,"intl_designator":"2020-070AG","name":"STARLINK-1714","alt_names":[],"object_type":"PAYLOAD","status":"ACTIVE","operator":null,"country":"US","launch_date":"2020-10-06","launch_site_code":"AFETR","launch_vehicle":null,"mission":null,"orbit_class":"UNKNOWN","rcs_meters":null,"size_class":null,"mass_kg":null,"dimensions":null,"purposes":["comms"],"wikipedia_slug":null,"has_3d_model":false,"image_url":null,"decayed_at":null,"tle_current":{"epoch":"2026-09-06T04:10:56.787168Z","epoch_age_seconds":1259791,"freshness":"OLD","line1":"1 46562U 20070AG  26249.17426837  .07093892  12293-4  87420-3 0  9996","line2":"2 46562  53.0117 298.0192 0004594 325.9961  34.0789 16.35417788328789","mean_motion":16.35417788,"eccentricity":0.0004594,"inclination_deg":53.0117,"raan_deg":298.0192,"arg_perigee_deg":325.9961,"mean_anomaly_deg":34.0789,"bstar":0.0008742,"rev_number":32878,"period_min":88.050895041384,"perigee_km":175.00837567219,"apogee_km":181.03217297584,"semimajor_km":6556.157274324,"source":"CELESTRAK","updated_at":"2026-09-06T09:00:33.642261Z"}}}